{"data":{"norad_id":48106,"epoch":"2026-05-24T11:34:03.054720Z","epoch_age_seconds":109979,"freshness":"FRESH","line1":"1 48106U 21027Q   26144.48197980  .00002513  00000+0  92684-4 0  9997","line2":"2 48106  53.1605 160.1506 0001131  86.8779 273.2352 15.31710553284291","mean_motion":15.31710553,"eccentricity":0.0001131,"inclination_deg":53.1605,"raan_deg":160.1506,"arg_perigee_deg":86.8779,"mean_anomaly_deg":273.2352,"bstar":9.2684e-5,"rev_number":28429,"period_min":94.012540240036,"perigee_km":469.93393303211,"apogee_km":471.48314189268,"semimajor_km":6848.8455374624,"source":"CELESTRAK","updated_at":"2026-05-25T13:38:16.643669Z"}}